Regional Weather Roundup
Issued by NWS Cleveland, OH

Home | Current Version | Previous Version | Graphics & Text | Print | Product List | Glossary On
Versions: 1 2 3 4 5 6 7 8 9 10 11 12 13 14 15 16 17 18 19 20 21 22 23 24 25 26 27 28 29 30 31 32 33 34 35 36 37 38 39 40 41 42 43 44 45 46 47 48 49 50
000
ASUS41 KCLE 021910
RWRCLE
OHIO REGIONAL WEATHER ROUNDUP
NATIONAL WEATHER SERVICE WILMINGTON, OH
300 PM EDT TUE SEP 02 2014

NOTE: "FAIR" INDICATES FEW OR NO CLOUDS BELOW 12,000 FEET WITH NO
SIGNIFICANT WEATHER AND/OR OBSTRUCTIONS TO VISIBILITY.

OHZ001>008-015>018-024>027-034-035-043-044-022000-
   NORTHWEST OHIO

CITY           SKY/WX    TMP DP  RH WIND       PRES   REMARKS
DEFIANCE       PTSUNNY   77  67  71 VRB7      29.90R
FINDLAY        CLOUDY    72  67  84 W13       29.92S
TOLEDO EXPRESS CLOUDY    75  68  78 SW8       29.86F
TOLEDO METCALF CLOUDY    74  68  81 W8        29.89F
LIMA           CLOUDY    73  67  81 W14       29.95R
$$

OHZ009>014-019>023-028>033-038-089-022000-
   NORTHEAST OHIO

CITY           SKY/WX    TMP DP  RH WIND       PRES   REMARKS
CLE-HOPKINS    CLOUDY    78  64  61 W14       29.90S
CLE-LAKEFRONT  CLOUDY    76  66  71 W14       29.87S
CUY CO. ARPT   PTSUNNY   75  70  83 W12       29.90R
LORAIN-ELYRIA  CLOUDY    80  65  59 W16G22    29.90S
ASHTABULA      LGT RAIN  72  68  87 SW9       29.88F
AKRON-CANTON   PTSUNNY   75  67  76 W10       29.90F
WOOSTER        PTSUNNY   77  68  73 W13G24    29.92F
MANSFIELD      CLOUDY    75  65  70 SW16      29.94R
YOUNGSTOWN     CLOUDY    71  67  87 W9        29.89S
$$

OHZ042-051>053-060>062-070>072-077>081-022000-
  SOUTHWEST OHIO

CITY           SKY/WX    TMP DP  RH WIND       PRES   REMARKS
CINC-COVINGTON NOT AVBL
CINC-LUNKEN    CLOUDY    79  71  76 W9        29.96S
HAMILTON       CLOUDY    77  71  82 W5        29.97S
DAYTON         CLOUDY    77  66  68 W9        29.97S
WRIGHT-PAT AFB HVY RAIN  76  68  77 SW8       29.96R FOG
DAYTON GENERAL CLOUDY    77  67  71 W12       29.96S
WILMINGTON     LGT RAIN  77  68  73 W10       29.96S
$$

OHZ036-037-039>041-045>050-054>059-063>069-073>076-082>088-022000-
  CENTRAL AND SOUTHEAST OHIO

CITY           SKY/WX    TMP DP  RH WIND       PRES   REMARKS
COLUMBUS       CLOUDY    81  64  56 W13G20    29.93S
OSU AIRPORT    CLOUDY    77  66  68 W12       29.95S
BOLTON FIELD   CLOUDY    77  68  73 W5        29.96S
RICKENBACK AFB PTSUNNY   82  63  51 W12       29.93F
NEWARK         CLOUDY    77  67  71 SW13      29.94R
MARION         CLOUDY    75  65  70 W14       29.94S
LANCASTER      PTSUNNY   80  67  64 W12       29.95S
ZANESVILLE     PTSUNNY   81  68  64 W14G22    29.93S
NEW PHILLY     MOSUNNY   80  69  69 SW13G22   29.91S
$$



USA.gov is the U.S. government's official web portal to all federal, state and local government web resources and services.